Location: Newark
(13.6797°N, 8.5297°E)
Time: 22:37:14
(UTC+00:00)

Transit 4A - Visible Passes

Search period start: 18 January 2020 00:00
Search period end: 28 January 2020 00:00
Orbit: 871 x 973 km, 66.8° (Epoch: 18 January)

Date Brightness Start Highest point End Pass type
(mag) Time Alt. Az. Time Alt. Az. Time Alt. Az.
18 Jan 8.1 17:41:42 10° NNW 17:47:32 73° WSW 17:53:29 10° SSE visible
19 Jan 11.0 05:03:20 10° SSE 05:07:16 18° ESE 05:11:08 10° ENE visible
19 Jan 9.3 17:51:18 10° NW 17:56:47 42° WSW 18:02:23 10° S visible
20 Jan 10.1 05:11:11 10° SSE 05:16:29 30° ESE 05:21:41 10° NE visible
20 Jan 10.4 18:01:21 10° NW 18:06:01 25° WSW 18:10:45 10° SSW visible
21 Jan 9.0 05:19:45 10° S 05:25:44 50° ESE 05:31:34 10° NE visible
21 Jan 11.2 18:12:19 10° WNW 18:15:14 14° WSW 18:18:11 10° SW visible
22 Jan 8.1 05:28:47 10° SSW 05:35:01 85° ESE 05:41:04 10° NNE visible
23 Jan 11.1 03:56:14 10° SE 03:58:21 12° ESE 04:00:28 10° E visible
24 Jan 10.4 04:03:03 10° SSE 04:07:35 21° ESE 04:12:02 10° ENE visible
25 Jan 9.4 04:11:14 10° S 04:16:49 36° ESE 04:22:17 10° NE visible
26 Jan 8.4 04:19:58 10° S 04:26:05 61° ESE 04:32:01 10° NNE visible
27 Jan 7.8 04:29:10 10° SSW 04:35:21 81° WNW 04:41:23 10° NNE visible
